Newberry, MI

7:20 AM EST on February 24, 2018 (GMT -0500)
Luce County

Weather History for KERY - April, 2013

Change the Weather History Date:

Monday, April 1, 2013

  Actual Average Record
Temperature  
Mean Temperature 21 °F -  
Max Temperature 23 °F 40 °F 68 °F (1945)
Min Temperature 19 °F 23 °F -2 °F (1923)
Degree Days  
Heating Degree Days 44    
Moisture  
Dew Point 16 °F    
Average Humidity 84    
Maximum Humidity 93    
Minimum Humidity 58    
Precipitation  
Precipitation 0.00 in - - ()
Sea Level Pressure  
Sea Level Pressure 29.91 in    
Wind  
Wind Speed 12 mph (WNW)    
Max Wind Speed 23 mph    
Max Gust Speed 30 mph    
Visibility 4 miles    
Events Snow    
Averages and records for this station are not official NWS values.
T = Trace of Precipitation, MM = Missing Value Source: NWS Daily Summary

Daily Weather History Graph

Daily Weather History Graph

Search for Another Location

Airport or City:

Trip Planner

Search our weather history database for the weather conditions in past years. The results will help you decide how hot, cold, wet, or windy it might be!

Date:

Astronomy

Apr. 01, 2013 Rise Set
Actual Time 7:21 AM EDT 8:10 PM EDT
Civil Twilight 6:50 AM EDT 8:41 PM EDT
Nautical Twilight 6:14 AM EDT 9:17 PM EDT
Astronomical Twilight 5:36 AM EDT 9:56 PM EDT
Moon 1:33 AM EDT (4/1) 10:51 AM EDT (4/1)
Length of Visible Light 13h 50m
Length of Day
12h 49m
Waning Gibbous, 67% of the Moon is Illuminated
Apr 1
Waning Gibbous
Apr 3
Last Quarter
Apr 10
New
Apr 18
First Quarter
Apr 25
Full

Hourly Weather History & Observations

Time (EDT) Temp. Windchill Dew Point Humidity Pressure Visibility Wind Dir Wind Speed Gust Speed Precip Events Conditions
12:14 AM 23.0 °F 9.6 °F 19.4 °F 86% 29.70 in 1.5 mi NW 16.1 mph 28.8 mph N/A Snow Light Snow
12:35 AM 23.0 °F 11.1 °F 19.4 °F 86% 29.71 in 3.0 mi NW 12.7 mph 20.7 mph N/A Snow Light Snow
1:15 AM 23.0 °F 11.7 °F 19.4 °F 86% 29.72 in 2.0 mi NW 11.5 mph 23.0 mph N/A Snow Light Snow
1:35 AM 21.2 °F 8.3 °F 17.6 °F 86% 29.72 in 3.0 mi NW 13.8 mph 29.9 mph N/A Snow Light Snow
2:15 AM 21.2 °F 8.3 °F 17.6 °F 86% 29.74 in 2.0 mi NW 13.8 mph 27.6 mph N/A Snow Light Snow
2:35 AM 21.2 °F 8.9 °F 17.6 °F 86% 29.74 in 1.5 mi NW 12.7 mph 23.0 mph N/A Snow Light Snow
2:54 AM 21.2 °F 12.6 °F 19.4 °F 93% 29.75 in 1.5 mi NNW 6.9 mph - N/A Snow Light Snow
3:15 AM 21.2 °F 10.1 °F 17.6 °F 86% 29.76 in 3.0 mi NNW 10.4 mph 21.9 mph N/A Snow Light Snow
3:34 AM 19.4 °F 5.5 °F 15.8 °F 86% 29.76 in 3.0 mi NNW 15.0 mph 20.7 mph N/A Snow Light Snow
3:55 AM 19.4 °F 8.6 °F 17.6 °F 93% 29.77 in 2.0 mi NNW 9.2 mph 16.1 mph N/A Snow Light Snow
4:15 AM 19.4 °F 9.5 °F 17.6 °F 93% 29.78 in 3.0 mi NNW 8.1 mph - N/A Snow Light Snow
4:34 AM 19.4 °F 8.6 °F 17.6 °F 93% 29.79 in 1.8 mi NW 9.2 mph - N/A Snow Light Snow
5:14 AM 19.4 °F 8.6 °F 17.6 °F 93% 29.80 in 2.0 mi NW 9.2 mph - N/A Snow Light Snow
5:34 AM 19.4 °F 7.9 °F 17.6 °F 93% 29.81 in 1.2 mi NW 10.4 mph - N/A Snow Light Snow
5:55 AM 19.4 °F 10.4 °F 17.6 °F 93% 29.82 in 1.0 mi NNW 6.9 mph - N/A Snow Snow
6:14 AM 19.4 °F 11.5 °F 17.6 °F 93% 29.83 in 1.0 mi NNW 5.8 mph - N/A Snow Snow
6:34 AM 19.4 °F 12.8 °F 17.6 °F 93% 29.83 in 1.2 mi NNW 4.6 mph - N/A Snow Light Snow
6:55 AM 19.4 °F 10.4 °F 17.6 °F 93% 29.84 in 5.0 mi NW 6.9 mph - N/A Snow Light Snow
7:14 AM 19.4 °F 11.5 °F 17.6 °F 93% 29.85 in 1.2 mi NW 5.8 mph - N/A Snow Light Snow
7:35 AM 19.4 °F 11.5 °F 17.6 °F 93% 29.85 in 0.5 mi WNW 5.8 mph - N/A Snow Snow
8:14 AM 19.4 °F 8.6 °F 17.6 °F 93% 29.87 in 3.0 mi NW 9.2 mph 16.1 mph N/A Snow Light Snow
8:35 AM 19.4 °F 7.2 °F 17.6 °F 93% 29.87 in 1.0 mi NW 11.5 mph 21.9 mph N/A Snow Light Snow
8:55 AM 19.4 °F 6.6 °F 15.8 °F 86% 29.88 in 5.0 mi NW 12.7 mph 20.7 mph N/A Snow Light Snow
9:14 AM 19.4 °F 7.9 °F 17.6 °F 93% 29.88 in 1.2 mi WNW 10.4 mph 20.7 mph N/A Snow Light Snow
9:35 AM 21.2 °F 8.9 °F 17.6 °F 86% 29.89 in 0.8 mi WNW 12.7 mph 18.4 mph N/A Snow Light Snow
9:54 AM 19.4 °F 6.0 °F 17.6 °F 93% 29.90 in 0.5 mi WNW 13.8 mph 23.0 mph N/A Snow Snow
10:14 AM 19.4 °F 7.2 °F 17.6 °F 93% 29.90 in 0.8 mi NW 11.5 mph 19.6 mph N/A Snow Light Snow
10:35 AM 21.2 °F 8.9 °F 15.8 °F 80% 29.90 in 7.0 mi NW 12.7 mph 18.4 mph N/A Snow Light Snow
10:54 AM 19.4 °F 5.5 °F 14.0 °F 80% 29.91 in 1.0 mi NW 15.0 mph 25.3 mph N/A Snow Light Snow
11:14 AM 21.2 °F 8.3 °F 12.2 °F 68% 29.91 in 7.0 mi West 13.8 mph 24.2 mph N/A   Overcast
11:35 AM 21.2 °F 6.0 °F 12.2 °F 68% 29.92 in 7.0 mi WNW 19.6 mph 27.6 mph N/A Snow Light Snow
12:15 PM 21.2 °F 6.4 °F 8.6 °F 58% 29.93 in 7.0 mi WNW 18.4 mph 29.9 mph N/A   Overcast
12:35 PM 21.2 °F 6.0 °F 10.4 °F 63% 29.94 in 7.0 mi WNW 19.6 mph 25.3 mph N/A   Overcast
12:54 PM 21.2 °F 6.0 °F 10.4 °F 63% 29.94 in 7.0 mi NW 19.6 mph 27.6 mph N/A   Mostly Cloudy
1:15 PM 21.2 °F 4.9 °F 12.2 °F 68% 29.95 in 4.0 mi WNW 23.0 mph 29.9 mph N/A Snow Light Snow
1:34 PM 23.0 °F 9.6 °F 12.2 °F 63% 29.95 in 7.0 mi WNW 16.1 mph 21.9 mph N/A   Overcast
1:54 PM 21.2 °F 6.8 °F 14.0 °F 74% 29.96 in 5.0 mi WNW 17.3 mph 21.9 mph N/A Snow Light Snow
2:15 PM 21.2 °F 6.4 °F 10.4 °F 63% 29.96 in 5.0 mi WNW 18.4 mph 28.8 mph N/A   Haze
2:34 PM 21.2 °F 6.4 °F 10.4 °F 63% 29.96 in 5.0 mi WNW 18.4 mph 27.6 mph N/A   Haze
3:14 PM 21.2 °F 8.3 °F 14.0 °F 74% 29.97 in 7.0 mi WNW 13.8 mph 25.3 mph N/A   Overcast
3:34 PM 21.2 °F 5.6 °F 10.4 °F 63% 29.98 in 5.0 mi WNW 20.7 mph 27.6 mph N/A   Haze
3:55 PM 21.2 °F 6.8 °F 12.2 °F 68% 29.98 in 3.0 mi NW 17.3 mph 27.6 mph N/A Snow Light Snow
4:14 PM 21.2 °F 8.3 °F 15.8 °F 80% 29.99 in 1.5 mi NW 13.8 mph 20.7 mph N/A Snow Light Snow
4:34 PM 21.2 °F 8.3 °F 15.8 °F 80% 29.99 in 2.5 mi WNW 13.8 mph 23.0 mph N/A Snow Light Snow
4:55 PM 19.4 °F 6.0 °F 15.8 °F 86% 29.99 in 0.8 mi WNW 13.8 mph 24.2 mph N/A Snow Light Snow
5:14 PM 21.2 °F 7.8 °F 12.2 °F 68% 29.99 in 7.0 mi WNW 15.0 mph 27.6 mph N/A   Overcast
5:35 PM 21.2 °F 8.9 °F 12.2 °F 68% 30.00 in 4.0 mi NW 12.7 mph 24.2 mph N/A   Haze
6:14 PM 21.2 °F 9.5 °F 14.0 °F 74% 30.01 in 5.0 mi WNW 11.5 mph 24.2 mph N/A   Haze
6:35 PM 19.4 °F 7.2 °F 15.8 °F 86% 30.02 in 1.2 mi West 11.5 mph 16.1 mph N/A Snow Light Snow
7:14 PM 19.4 °F 6.6 °F 15.8 °F 86% 30.02 in 4.0 mi West 12.7 mph - N/A Snow Light Snow
7:35 PM 19.4 °F 11.5 °F 17.6 °F 93% 30.02 in 0.8 mi WNW 5.8 mph - N/A Snow Light Snow
7:54 PM 19.4 °F 8.6 °F 17.6 °F 93% 30.02 in 4.0 mi West 9.2 mph - N/A Snow Light Snow
8:14 PM 19.4 °F 9.5 °F 15.8 °F 86% 30.02 in 2.5 mi West 8.1 mph - N/A Snow Light Snow
8:35 PM 19.4 °F 9.5 °F 15.8 °F 86% 30.02 in 10.0 mi West 8.1 mph - N/A Snow Light Snow
8:54 PM 19.4 °F 7.9 °F 15.8 °F 86% 30.02 in 5.0 mi West 10.4 mph - N/A Snow Light Snow
9:15 PM 19.4 °F 8.6 °F 15.8 °F 86% 30.02 in 10.0 mi West 9.2 mph - N/A Snow Light Snow
9:35 PM 19.4 °F 9.5 °F 17.6 °F 93% 30.02 in 2.5 mi WSW 8.1 mph - N/A Snow Light Snow
9:54 PM 19.4 °F 8.6 °F 17.6 °F 93% 30.02 in 3.0 mi West 9.2 mph - N/A Snow Light Snow
10:15 PM 19.4 °F 10.4 °F 17.6 °F 93% 30.02 in 7.0 mi WSW 6.9 mph - N/A Snow Light Snow
10:35 PM 19.4 °F 9.5 °F 17.6 °F 93% 30.02 in 1.2 mi WSW 8.1 mph - N/A Snow Light Snow
10:54 PM 19.4 °F 7.9 °F 17.6 °F 93% 30.02 in 1.0 mi WSW 10.4 mph 16.1 mph N/A Snow Snow
11:15 PM 19.4 °F 7.9 °F 17.6 °F 93% 30.01 in 4.0 mi WSW 10.4 mph - N/A Snow Light Snow
11:34 PM 19.4 °F 8.6 °F 17.6 °F 93% 30.01 in 7.0 mi WSW 9.2 mph - N/A Snow Light Snow
11:54 PM 19.4 °F 8.6 °F 17.6 °F 93% 30.01 in 5.0 mi WSW 9.2 mph - N/A Snow Light Snow